Location: Unspecified
(33.2407°S, 0.0000°E)
Time: 17:52:08
(UTC+00:00)

Envisat - Pass Details

Date: 25 May 2019
Orbit: 764 x 766 km, 98.1° (Epoch: 24 June)

Event Time Altitude Azimuth Distance (km) Brightness Sun altitude
Exits shadow 18:49:11 36° 52° (NE) 1,210 3.7 -21.9°
Drops below altitude 10° 18:52:53 10° 12° (NNE) 2,302 5.5 -22.6°
Sets 18:55:17 0° 5° (N) 3,220 6.3 -23.1°
